Date,TemperatureHighF,TemperatureAvgF,TemperatureLowF,DewpointHighF,DewpointAvgF,DewpointLowF,HumidityHigh,HumidityAvg,HumidityLow,PressureMaxIn,PressureMinIn,WindSpeedMaxMPH,WindSpeedAvgMPH,GustSpeedMaxMPH,PrecipitationSumIn
2013-1-4,32,29,29,20,15,-100,64,61,60,29.94,29.91,7,-28,0,0.00
2013-1-5,40,31,24,24,20,17,82,64,50,30.15,29.95,5,2,0,0.01
2013-1-6,41,32,26,29,25,20,84,74,58,30.04,29.78,4,1,0,0.00
2013-1-7,42,32,25,29,24,19,90,72,50,30.21,29.88,5,1,0,0.00
2013-1-8,44,33,24,29,25,20,93,74,55,30.18,30.08,4,1,0,0.00
2013-1-9,44,35,24,34,29,23,97,81,59,30.12,29.84,4,1,0,0.00
2013-1-10,43,36,30,31,24,22,73,60,45,30.25,29.91,6,1,0,0.00
2013-1-11,37,32,26,37,28,22,99,85,66,30.24,29.81,4,0,0,0.43
2013-1-12,44,40,38,44,40,38,99,99,99,29.86,29.77,3,0,0,0.05
2013-1-13,45,42,37,45,41,37,99,99,99,29.85,29.71,3,0,0,0.01
2013-1-14,52,44,32,52,41,28,99,92,72,30.01,29.63,5,1,0,0.06
2013-1-15,35,32,28,30,27,24,97,82,69,30.05,29.93,4,1,0,0.00
2013-1-16,32,30,28,31,29,24,99,97,74,29.94,29.53,5,0,0,0.00
2013-1-17,40,33,27,31,27,18,99,79,59,29.84,29.61,6,2,0,0.01
2013-1-18,26,21,15,16,8,2,70,57,41,30.19,29.76,6,2,0,0.00
2013-1-19,42,33,20,28,21,10,72,61,53,30.10,29.63,6,2,0,0.00
2013-1-20,49,38,24,30,23,8,80,56,34,29.75,29.39,9,4,0,0.00
2013-1-21,30,23,17,21,13,5,96,66,46,29.83,29.55,8,1,0,0.00
2013-1-22,19,15,7,16,1,-8,96,54,40,29.91,29.53,8,3,0,0.00
2013-1-23,16,9,3,-2,-4,-8,71,54,38,29.96,29.88,7,3,0,0.00
2013-1-24,19,9,0,0,-3,-5,83,59,38,30.09,29.88,9,2,0,0.00
2013-1-25,23,14,5,14,3,-2,94,64,35,30.14,29.80,4,1,0,0.00
2013-1-26,22,16,8,12,6,2,91,68,49,30.10,29.78,7,2,0,0.00
2013-1-27,30,18,8,10,6,2,87,60,35,30.25,30.09,6,1,0,0.04
2013-1-28,31,25,16,30,20,2,99,80,49,30.24,29.74,3,0,0,0.00
2013-1-29,38,34,30,37,34,30,99,97,88,29.92,29.73,3,0,0,0.08
2013-1-30,54,46,33,54,46,33,99,99,98,29.87,29.15,5,1,0,0.07
2013-1-31,56,42,25,56,32,11,99,72,42,29.50,28.81,11,5,0,0.74
2013-2-1,28,24,18,14,9,4,68,53,38,29.97,29.50,9,4,0,0.00
2013-2-2,28,20,14,18,9,4,92,64,37,30.06,29.85,6,2,0,0.00
2013-2-3,30,21,14,18,15,12,98,80,55,29.85,29.57,4,0,0,0.05
2013-2-4,28,22,17,18,10,5,93,61,40,29.77,29.58,7,3,0,0.00
2013-2-5,28,24,18,23,19,10,96,84,66,29.81,29.72,4,0,0,0.04
2013-2-6,36,28,21,26,18,4,99,70,44,30.16,29.73,8,2,0,0.02
2013-2-7,31,22,14,14,6,2,70,50,36,30.34,30.16,4,1,0,0.00
2013-2-8,29,26,24,28,23,14,98,86,66,30.19,29.51,7,4,0,0.06
2013-2-9,27,21,14,20,10,-100,93,66,52,30.12,29.69,12,-11,0,0.11
2013-2-10,37,22,10,12,3,-2,62,44,24,30.29,30.11,6,1,0,0.00
2013-2-11,42,35,24,42,33,14,99,94,65,30.16,29.49,3,0,0,0.25
2013-2-12,42,37,33,37,28,23,99,70,54,29.77,29.50,8,3,0,0.18
2013-2-13,43,34,24,30,23,20,96,67,45,29.76,29.52,4,0,0,0.00
2013-2-14,43,33,25,30,26,23,99,77,49,29.82,29.53,6,1,0,0.03
2013-2-15,52,39,29,33,30,26,99,72,43,29.83,29.73,6,1,0,0.00
2013-2-16,36,31,26,32,23,14,98,75,52,29.80,29.53,6,2,0,0.06
2013-2-17,28,21,12,14,4,0,63,49,33,29.70,29.41,11,5,0,0.00
2013-2-18,31,21,12,10,5,1,63,51,35,30.03,29.72,8,3,0,0.00
2013-2-19,45,34,22,39,26,10,99,76,54,30.02,29.47,7,1,0,0.23
2013-2-20,33,27,20,28,14,9,82,59,47,29.75,29.48,10,5,0,0.00
2013-2-21,32,24,19,15,12,10,75,61,47,30.14,29.72,8,4,0,0.00
2013-2-22,38,28,18,27,20,13,91,73,51,30.23,30.09,5,1,0,0.00
2013-2-23,36,33,31,36,32,27,99,95,84,30.11,29.65,6,2,0,0.06
2013-2-24,42,34,29,37,32,26,99,92,75,29.77,29.56,5,2,0,0.06
2013-2-25,44,35,27,28,25,23,86,69,51,30.08,29.27,6,1,4,0.00
2013-2-26,42,35,25,31,27,23,99,75,53,30.30,29.40,8,3,8,0.07
2013-2-27,41,37,31,41,37,31,99,99,99,29.99,29.34,12,4,12,1.22
2013-2-28,46,38,33,40,35,32,99,91,65,29.64,29.36,6,1,6,0.02
2013-3-1,43,35,31,34,30,26,99,81,58,29.78,29.40,7,3,7,0.01
2013-3-2,39,32,27,26,24,22,83,72,58,29.78,29.50,9,4,9,0.00
2013-3-3,34,28,25,26,21,17,85,73,55,29.74,29.46,13,4,13,0.00
2013-3-4,40,32,24,23,20,-1,79,62,49,29.87,29.53,12,5,12,0.00
2013-3-5,46,34,26,27,24,20,79,66,46,30.02,29.69,8,2,8,0.00
2013-3-6,39,36,34,36,32,26,95,83,69,30.03,29.74,10,4,10,0.02
2013-3-7,37,32,30,32,29,25,99,87,75,30.09,29.76,16,5,16,0.04
2013-3-8,37,34,28,31,27,24,99,75,65,30.18,29.82,13,5,13,0.06
2013-3-9,52,38,29,26,23,21,76,57,33,30.32,30.00,9,3,9,0.00
2013-3-10,52,37,26,33,29,22,99,75,45,30.38,30.13,6,1,6,0.00
2013-3-11,53,43,36,42,37,31,99,82,61,30.32,29.94,7,1,7,0.00
2013-3-12,132,48,38,52,48,37,99,98,90,30.14,29.51,9,3,9,1.00
2013-3-13,50,40,29,36,28,23,99,64,39,29.86,29.60,10,3,10,0.00
2013-3-14,34,29,25,27,14,7,85,54,37,29.91,29.64,16,6,16,0.00
2013-3-15,40,31,22,30,18,8,80,58,40,29.92,29.53,10,4,10,0.00
2013-3-16,38,31,25,28,22,14,95,71,43,29.87,29.57,9,1,9,0.00
2013-3-17,37,30,21,26,14,9,96,53,32,30.30,29.73,9,2,9,0.01
2013-3-18,35,25,18,27,12,5,99,60,35,30.39,29.92,9,3,9,0.00
2013-3-19,39,32,27,35,31,17,99,97,72,30.06,29.50,9,3,9,0.28
2013-3-20,42,32,24,22,19,16,81,61,38,29.84,29.59,13,4,13,0.00
2013-3-21,39,31,27,25,18,11,84,59,35,29.83,29.44,7,2,7,0.00
2013-3-22,39,30,22,22,18,6,78,61,45,29.84,29.51,8,3,10,0.00
2013-3-23,44,35,29,24,20,17,71,56,38,29.90,29.59,10,4,14,0.00
2013-3-24,45,34,24,25,21,16,79,59,43,29.93,29.55,6,1,10,0.00
2013-3-25,44,37,31,28,25,23,81,63,48,29.74,29.27,6,2,10,0.00
2013-3-26,49,39,32,30,26,22,76,59,40,29.85,29.42,6,1,10,0.16
2013-3-27,52,40,29,30,24,21,76,55,32,30.02,29.66,8,2,10,0.00
2013-3-28,50,40,33,35,30,18,75,67,52,30.09,29.75,7,2,10,0.00
2013-3-29,54,43,33,32,29,26,81,59,38,30.12,29.86,6,2,8,0.00
2013-3-30,57,44,32,32,25,18,85,52,25,30.15,29.88,8,1,10,0.00
2013-3-31,55,43,29,41,28,18,99,58,35,30.13,29.50,8,2,9,0.06
2013-4-1,61,44,31,45,36,13,99,76,41,29.88,29.43,9,2,12,0.07
2013-4-2,42,33,26,17,13,9,69,45,30,30.04,29.88,10,4,13,0.00
2013-4-3,45,34,27,16,13,10,59,43,27,30.26,30.03,10,4,14,0.00
2013-4-4,54,38,23,29,19,12,77,49,24,30.35,30.08,7,2,9,0.00
2013-4-5,61,46,35,30,24,18,77,46,21,30.08,29.72,9,2,11,0.00
2013-4-6,55,38,29,22,12,5,64,37,15,30.30,29.98,9,2,13,0.00
2013-4-7,55,43,31,41,32,22,95,68,41,30.30,30.01,8,2,11,0.00
2013-4-8,73,54,39,44,40,38,99,65,28,30.09,29.99,7,1,9,0.00
2013-4-9,77,62,47,52,44,38,97,58,27,30.03,29.93,10,2,14,0.00
2013-4-10,69,57,47,56,49,41,99,77,55,29.98,29.84,9,1,13,0.34
2013-4-11,60,51,43,54,47,38,99,87,66,30.15,29.82,5,2,7,0.08
2013-4-12,43,38,35,38,35,28,99,89,58,30.08,29.75,12,4,14,0.39
2013-4-13,56,44,34,41,36,32,99,75,45,29.96,29.76,5,1,7,0.08
2013-4-14,54,46,36,36,30,25,72,54,36,30.27,29.95,8,2,10,0.00
2013-4-15,60,45,34,35,29,-13,73,55,38,30.38,30.23,6,1,6,0.00
2013-4-16,64,51,38,52,44,31,95,79,59,30.38,30.13,7,1,9,0.02
2013-4-17,70,56,47,52,39,32,97,58,26,30.31,30.13,6,1,10,0.01
2013-4-18,60,51,40,49,38,-4,94,66,39,30.37,30.13,7,2,9,0.00
2013-4-19,73,61,50,62,57,49,99,89,68,30.13,29.69,8,2,10,0.12
2013-4-20,60,49,40,60,36,24,99,65,31,30.28,29.68,8,3,12,0.31
2013-4-21,57,41,30,27,22,18,72,48,27,30.61,30.28,7,2,10,0.00
2013-4-22,55,43,33,34,30,24,89,63,34,30.67,30.51,8,2,10,0.00
2013-4-23,48,40,34,40,35,29,93,81,70,30.51,30.12,5,2,7,0.00
2013-4-24,72,55,37,49,44,36,98,70,44,30.12,29.86,7,2,9,0.00
2013-4-25,68,53,44,50,31,22,96,48,20,30.27,29.86,8,2,10,0.00
2013-4-26,68,51,36,36,30,24,77,46,25,30.42,30.26,7,1,9,0.00
2013-4-27,72,55,38,33,28,21,67,39,19,30.43,30.28,6,1,7,0.00
2013-4-28,69,60,48,44,34,26,77,38,27,30.32,30.22,5,1,7,0.00
2013-4-29,58,53,48,46,42,34,87,67,51,30.26,30.22,5,1,6,0.13
2013-4-30,68,56,45,44,35,22,87,51,20,30.35,30.21,6,1,7,0.00
2013-5-1,70,55,38,43,34,24,80,48,25,30.49,30.34,6,1,6,0.00
2013-5-2,78,59,41,47,41,37,98,58,26,30.48,30.32,5,1,6,0.00
2013-5-3,70,56,46,44,38,33,85,51,31,30.47,30.35,6,2,9,0.00
2013-5-4,72,55,41,46,42,39,99,67,33,30.39,30.23,7,1,9,0.00
2013-5-5,67,51,39,43,39,35,99,69,34,30.31,30.22,5,1,7,0.00
2013-5-6,73,54,39,52,46,29,99,76,47,30.28,30.16,4,1,5,0.02
2013-5-7,76,60,45,57,51,44,99,75,44,30.19,30.11,5,1,7,0.00
2013-5-8,63,58,53,62,58,49,99,97,89,30.16,30.02,5,1,8,0.79
2013-5-9,62,56,50,60,55,34,99,98,53,30.05,29.91,4,0,5,0.42
2013-5-10,79,57,51,57,53,51,99,89,43,29.98,29.92,3,0,4,0.00
2013-5-11,64,60,58,63,60,55,99,97,85,29.93,29.75,4,0,6,0.37
2013-5-12,66,59,46,60,47,26,99,71,25,29.91,29.65,7,2,9,0.03
2013-5-13,53,45,37,34,30,26,85,58,37,30.10,29.77,6,1,7,0.00
2013-5-14,60,47,36,34,30,24,85,57,27,30.12,30.02,6,1,6,0.00
2013-5-15,64,51,37,54,44,31,96,78,65,30.08,29.71,5,1,7,0.02
2013-5-16,83,66,50,54,47,40,99,57,24,29.84,29.50,6,1,8,0.02
2013-5-17,70,63,53,43,42,38,62,47,35,30.23,29.84,5,1,8,0.00
2013-5-18,53,48,46,44,42,38,88,80,55,30.29,30.23,0,0,0,0.00
2013-5-19,47,47,47,44,44,44,88,88,88,30.29,30.29,0,0,0,0.00
2013-5-20,79,73,65,69,66,64,94,80,66,30.04,29.99,2,0,4,0.00
2013-5-21,87,78,62,72,68,62,99,75,55,29.99,29.86,3,1,6,0.00
2013-5-22,82,67,56,82,64,55,99,90,69,29.97,29.69,4,0,5,0.08
2013-5-23,74,65,63,70,64,-100,99,97,87,29.81,29.64,3,-10,4,1.96
2013-5-24,63,54,42,63,53,41,99,98,91,30.04,29.70,6,2,9,0.54
2013-5-25,47,42,40,46,42,40,99,99,95,29.96,29.86,6,3,9,1.06
2013-5-26,60,49,41,45,40,35,98,74,46,30.19,29.90,8,2,11,0.00
2013-5-27,75,57,41,43,39,36,85,54,25,30.24,30.13,4,1,6,0.00
2013-5-28,71,55,50,60,48,40,99,79,42,30.24,30.16,2,0,4,0.22
2013-5-29,79,67,55,72,63,55,99,90,75,30.17,30.05,3,0,5,0.02
2013-5-30,91,76,65,70,66,63,97,73,46,30.16,30.09,4,0,5,0.00
2013-5-31,93,79,66,70,65,62,90,65,39,30.16,30.03,3,0,4,0.00
2013-6-1,90,77,68,70,66,61,87,70,50,30.06,29.94,4,0,6,0.00
2013-6-2,88,76,68,71,67,65,92,75,56,29.96,29.80,4,0,6,0.00
2013-6-3,75,68,59,68,62,47,94,82,63,29.92,29.84,4,0,7,0.88
2013-6-4,76,60,49,48,44,40,73,56,34,30.14,29.92,6,1,8,0.00
2013-6-5,75,62,50,51,46,40,75,55,40,30.24,30.00,4,1,5,0.00
2013-6-6,71,59,50,55,50,44,92,75,53,30.18,30.07,3,0,4,0.18
2013-6-7,58,57,53,57,55,51,94,93,92,30.07,29.85,4,1,5,1.45
2013-6-8,74,63,53,66,58,51,95,85,67,30.08,29.73,4,1,5,0.01
2013-6-9,82,66,55,60,56,52,91,71,43,30.21,30.08,4,0,5,0.00
2013-6-10,72,63,58,63,57,54,92,83,71,30.21,29.92,4,1,6,1.20
2013-6-11,77,65,58,69,60,54,93,84,63,29.92,29.64,6,1,9,0.25
2013-6-12,74,64,57,56,53,50,79,68,50,29.89,29.70,7,1,9,0.00
2013-6-13,57,55,51,55,52,49,95,91,79,29.88,29.58,5,1,8,1.69
2013-6-14,67,56,49,61,54,48,97,91,75,29.90,29.60,4,0,6,0.72
2013-6-15,80,65,38,58,53,22,89,67,40,30.03,29.72,5,0,6,0.01
2013-6-16,79,67,55,63,56,47,81,68,47,30.02,29.77,4,0,5,0.00
2013-6-17,87,74,64,67,62,57,87,68,43,29.96,29.83,3,0,6,0.00
2013-6-18,83,70,60,69,63,58,93,80,59,29.96,29.83,3,0,4,0.05
2013-6-19,77,63,54,58,51,41,93,70,36,30.19,29.93,4,1,6,0.00
2013-6-20,79,65,51,59,53,45,89,68,45,30.29,30.19,4,0,5,0.00
2013-6-21,84,70,60,65,58,53,78,68,49,30.31,30.21,3,0,5,0.00
2013-6-22,83,70,59,64,59,53,81,68,52,30.27,30.17,1,0,2,0.00
2013-6-23,76,66,62,68,61,55,86,83,72,30.22,30.03,0,0,2,0.00
2013-6-24,91,75,66,73,68,62,92,80,50,30.12,29.99,7,0,8,0.64
2013-6-25,84,72,64,75,67,62,94,85,63,30.05,29.83,4,0,8,0.01
2013-6-26,80,74,68,72,68,65,90,81,71,29.89,29.81,3,0,6,0.02
2013-6-27,83,72,66,73,68,63,93,86,71,29.88,29.68,3,0,4,0.00
2013-6-28,81,75,69,73,70,67,96,86,72,29.59,29.50,3,0,6,0.31
2013-6-29,84,72,66,69,66,63,91,81,60,29.65,29.47,4,0,6,0.00
2013-6-30,82,72,68,73,68,64,92,88,61,29.93,29.65,0,0,0,0.00
2013-7-1,75,71,69,71,69,67,93,93,84,30.10,29.93,2,0,4,0.40
2013-7-2,80,74,70,76,72,68,99,95,84,30.30,30.09,3,0,4,0.03
2013-7-3,85,75,69,75,72,69,99,90,70,30.28,30.20,4,0,5,0.00
2013-7-4,87,79,72,77,74,66,99,85,65,30.29,30.19,4,0,6,0.00
2013-7-5,91,80,72,77,73,71,99,82,56,30.25,30.13,4,0,6,0.00
2013-7-6,91,81,73,75,73,72,97,79,59,30.17,30.07,3,0,5,0.00
2013-7-7,92,81,74,80,75,67,97,82,60,30.10,29.97,3,0,5,0.01
2013-7-8,88,78,69,72,69,66,95,76,56,30.09,30.00,4,0,5,0.00
2013-7-9,87,74,67,74,70,66,99,88,58,30.12,30.05,3,0,4,0.02
2013-7-10,83,75,69,78,73,69,99,93,77,30.07,29.85,4,0,6,0.06
2013-7-11,83,75,72,75,71,65,99,88,69,29.95,29.84,3,0,4,0.18
2013-7-12,80,74,62,69,66,60,99,76,63,30.18,29.95,4,0,6,0.09
2013-7-13,76,68,62,74,68,61,99,98,91,30.34,30.17,2,0,4,0.14
2013-7-14,88,79,71,77,74,71,99,85,64,30.36,30.27,3,0,4,0.00
2013-7-15,91,80,73,76,73,69,94,78,57,30.29,30.18,3,0,5,0.00
2013-7-16,90,80,71,73,69,66,88,71,48,30.25,30.09,4,0,6,0.00
2013-7-17,92,81,72,75,71,67,91,73,53,30.25,30.11,3,0,4,0.00
2013-7-18,92,77,72,77,73,69,99,88,58,30.12,29.97,4,0,6,0.06
2013-7-19,94,83,76,78,74,73,93,78,55,30.02,29.83,4,0,6,0.00
2013-7-20,91,80,73,76,73,69,88,80,58,29.90,29.68,3,0,5,0.01
2013-7-21,84,74,65,71,66,61,99,78,50,30.00,29.89,3,0,4,0.11
2013-7-22,83,75,68,74,70,64,99,84,73,30.06,29.88,0,0,0,0.17
2013-7-23,80,73,70,77,72,70,99,98,83,29.88,29.61,6,0,7,1.63
2013-7-24,77,71,61,74,66,53,99,87,69,29.98,29.67,5,1,6,0.00
2013-7-25,66,62,58,60,56,42,99,81,51,30.11,29.98,4,0,6,0.01
2013-7-26,77,67,60,67,62,34,99,87,67,30.09,30.03,4,0,5,0.01
2013-7-27,81,70,62,66,64,61,99,82,55,30.10,30.01,2,0,4,0.00
2013-7-28,79,69,62,69,66,62,99,90,69,30.05,29.98,3,0,4,0.06
2013-7-29,81,72,64,70,65,57,99,81,55,30.13,30.00,3,0,5,0.01
2013-7-30,77,68,58,62,59,55,94,74,54,30.19,30.12,4,0,6,0.00
2013-7-31,79,64,60,77,60,57,93,86,48,30.26,30.08,0,0,0,0.00
2013-8-1,75,65,63,68,64,61,99,95,71,30.09,29.88,2,0,3,0.38
2013-8-2,78,69,63,68,64,60,99,86,55,29.94,29.83,3,0,5,0.47
2013-8-3,74,66,62,69,64,59,99,93,80,29.94,29.87,3,0,5,0.10
2013-8-4,76,65,57,63,59,54,99,83,52,30.00,29.83,5,0,6,0.02
2013-8-5,73,63,55,56,52,47,94,70,43,30.08,29.99,5,1,6,0.01
2013-8-6,77,66,53,60,56,50,99,73,51,30.17,30.03,3,0,5,0.00
2013-8-7,76,67,58,66,62,57,99,85,63,30.19,30.09,3,0,6,0.00
2013-8-8,80,72,67,74,70,66,99,94,79,30.12,29.97,2,0,3,0.04
2013-8-9,78,73,69,78,72,69,99,98,95,30.06,29.74,3,0,6,0.20
2013-8-10,78,71,62,69,64,56,99,80,52,30.09,29.89,3,0,5,0.00
2013-8-11,77,66,55,62,56,51,91,72,50,30.16,30.06,3,0,4,0.00
2013-8-12,79,70,62,64,61,54,99,77,44,30.07,29.94,2,0,3,0.00
2013-8-13,71,67,65,70,67,64,99,98,94,29.98,29.75,1,0,2,0.22
2013-8-14,70,63,55,64,54,50,99,75,53,30.06,29.79,6,1,7,0.00
2013-8-15,72,63,52,56,53,47,99,72,46,30.17,30.06,4,1,6,0.00
2013-8-16,77,65,54,60,56,52,99,75,44,30.24,30.12,3,0,4,0.00
2013-8-17,79,69,56,61,58,54,98,70,49,30.32,30.24,3,1,4,0.00
2013-8-18,79,79,79,59,59,59,50,50,50,30.27,30.27,2,2,2,0.00
2013-8-19,79,79,79,59,59,59,50,50,50,30.27,30.14,2,1,2,0.00
2013-8-20,79,79,79,59,59,59,50,50,50,30.14,30.14,0,0,0,0.00
2013-8-24,75,66,59,58,56,50,89,71,42,30.38,30.14,1,0,2,0.11
2013-8-25,74,62,56,57,55,53,96,79,49,30.38,30.15,0,0,0,0.00
2013-8-26,77,68,62,68,63,56,99,84,64,30.26,29.99,3,0,5,0.03
2013-8-27,80,71,67,72,67,64,99,89,69,30.00,29.77,4,0,6,0.12
2013-8-28,84,71,66,73,67,64,97,89,67,29.96,29.00,2,0,3,0.08
2013-8-29,77,70,65,68,66,63,97,88,70,30.05,29.92,3,0,4,0.00
2013-8-30,81,71,64,70,66,62,96,86,66,30.05,29.87,3,0,4,0.00
2013-8-31,82,75,69,75,71,68,94,89,77,29.88,29.81,3,0,6,0.00
2013-9-1,82,74,71,77,71,69,95,91,76,29.87,29.82,3,0,4,0.10
2013-9-2,77,71,68,75,70,67,97,94,87,29.93,29.73,4,0,5,0.75
2013-9-3,71,67,60,70,65,35,98,93,80,29.89,29.74,3,0,4,0.16
2013-9-4,76,63,60,62,59,58,93,86,56,29.97,29.89,2,0,4,0.00
2013-9-5,70,64,55,62,53,43,90,71,45,30.15,25.02,5,1,6,0.00
2013-9-6,66,56,47,48,44,41,86,66,45,30.25,30.13,3,0,5,0.00
2013-9-7,72,62,49,55,50,43,95,68,49,30.13,29.91,4,0,6,0.00
2013-9-8,72,65,55,57,53,44,86,67,45,30.09,29.74,4,0,5,0.00
2013-9-9,68,58,47,55,48,42,95,73,46,30.24,30.09,3,0,5,0.00
2013-9-10,78,68,58,74,66,55,98,93,82,30.18,30.06,3,0,5,0.06
2013-9-11,89,78,70,79,73,54,96,85,45,30.24,29.94,3,0,4,0.00
2013-9-12,84,73,66,76,70,65,98,90,73,30.01,29.62,3,0,5,0.03
2013-9-13,70,64,54,66,62,49,99,92,76,29.83,29.65,5,1,6,0.05
2013-9-14,55,53,47,50,48,46,96,84,80,29.97,29.84,5,0,6,0.00
2013-9-15,55,55,55,49,49,49,80,80,80,29.97,29.97,0,0,0,0.00
2013-9-16,67,58,50,56,53,45,97,83,63,30.25,29.97,4,0,5,0.00
2013-9-17,61,50,42,45,40,36,88,71,41,30.43,30.25,3,0,5,0.00
2013-9-18,67,54,42,50,45,41,99,75,46,30.34,30.18,3,0,5,0.00
2013-9-19,72,59,48,55,51,48,99,78,44,30.19,30.08,2,0,4,0.00
2013-9-20,75,62,51,60,55,51,99,82,46,30.10,30.01,3,0,5,0.00
2013-9-21,70,63,55,67,61,55,99,94,85,30.02,29.67,4,0,5,0.09
2013-9-22,66,58,49,65,54,42,99,86,61,29.91,29.65,5,1,7,1.20
2013-9-23,60,51,43,46,42,33,91,73,54,30.05,29.90,5,1,7,0.00
2013-9-24,66,53,41,47,43,39,96,72,44,30.05,29.80,4,1,5,0.00
2013-9-25,66,55,45,55,48,43,95,79,55,29.96,29.89,4,0,5,0.00
2013-9-26,67,58,51,55,52,49,95,83,62,30.11,29.95,3,0,4,0.00
2013-9-27,64,55,48,55,51,47,99,87,68,30.27,30.11,2,0,4,0.00
2013-9-28,68,57,48,56,52,48,99,86,59,30.33,30.25,2,0,3,0.00
2013-9-29,68,56,47,57,52,46,99,89,60,30.25,25.08,2,0,2,0.00
2013-9-30,68,57,46,55,50,45,99,80,57,30.10,29.99,2,0,3,0.00
2013-10-1,74,66,50,59,55,50,99,71,57,30.01,29.88,2,0,4,0.00
2013-10-2,77,67,55,65,59,55,99,76,61,30.01,29.91,3,0,5,0.00
2013-10-3,73,63,52,58,54,47,93,75,46,30.13,30.01,2,0,4,0.00
2013-10-4,78,65,56,69,61,56,99,87,69,30.08,29.99,3,0,5,0.00
2013-10-5,74,65,60,66,62,58,98,90,74,30.11,30.04,2,0,3,0.00
2013-10-6,63,61,59,63,60,58,99,99,98,30.14,30.07,3,0,4,0.25
2013-10-7,70,64,54,69,63,53,99,99,92,30.07,29.77,6,1,8,0.44
2013-10-8,61,53,47,53,46,42,99,79,51,30.34,29.96,5,0,9,0.00
2013-10-9,60,52,45,48,44,41,91,78,56,30.42,30.31,3,0,5,0.00
2013-10-10,60,53,48,55,50,45,94,88,80,30.32,30.12,3,0,5,0.00
2013-10-11,68,60,54,60,55,48,95,84,67,30.12,30.06,3,0,5,0.00
2013-10-12,68,59,51,57,51,45,89,76,57,30.32,30.11,5,1,7,0.00
2013-10-13,62,54,48,52,49,47,97,85,66,30.39,30.30,4,0,6,0.00
2013-10-14,62,52,43,53,47,43,99,87,58,30.37,30.24,4,0,5,0.00
2013-10-15,69,58,47,56,52,38,99,80,61,30.26,30.13,0,0,0,0.00
2013-10-16,63,55,48,56,51,46,97,87,69,30.13,29.93,1,0,2,0.00
2013-10-17,129,62,56,61,59,55,99,88,61,29.93,29.70,4,0,6,0.02
2013-10-18,63,57,49,61,48,-5,99,74,47,29.97,29.67,6,1,8,0.02
2013-10-19,62,52,42,53,45,40,99,77,48,29.98,29.74,4,0,6,0.06
2013-10-20,58,50,44,53,41,35,99,73,45,30.05,29.74,6,1,8,0.15
2013-10-21,62,51,41,46,40,37,89,68,40,30.13,29.98,4,0,5,0.00
2013-10-22,64,52,44,51,46,39,99,83,57,29.98,29.65,4,0,6,0.00
2013-10-23,52,44,35,40,36,32,98,74,49,29.81,29.61,4,0,6,0.00
2013-10-24,51,42,35,37,31,-5,94,69,41,29.94,29.72,7,1,8,0.00
2013-10-25,48,41,33,33,30,-5,89,68,48,30.18,29.94,7,1,9,0.00
2013-10-26,51,43,33,35,32,28,95,68,42,30.18,29.77,6,1,7,0.00
2013-10-27,54,47,41,37,33,30,77,58,41,30.10,29.74,8,2,9,0.00
2013-10-28,58,49,36,36,34,30,86,58,41,30.32,29.38,6,1,8,0.00
2013-10-29,48,41,35,31,28,26,79,61,48,30.42,30.32,4,0,5,0.00
2013-10-30,54,44,35,48,39,28,99,82,66,30.34,29.48,2,0,2,0.00
2013-10-31,61,51,39,58,50,5,99,97,15,30.26,29.85,3,0,6,0.13
2013-11-1,65,59,52,61,55,50,99,87,60,29.85,29.47,8,1,10,0.13
2013-11-2,65,53,45,50,44,40,95,76,45,29.82,29.53,5,0,6,0.00
2013-11-3,45,39,29,42,31,17,93,72,55,30.46,29.82,7,2,12,0.00
2013-11-4,43,33,26,19,16,11,68,50,29,30.67,30.46,5,1,7,0.00
2013-11-5,52,40,30,38,30,17,90,67,53,30.68,30.52,4,0,5,0.00
2013-11-6,59,49,39,48,43,37,96,81,58,30.51,30.10,4,0,6,0.00
2013-11-7,59,50,34,55,48,31,96,93,76,30.10,29.77,7,2,8,0.14
2013-11-8,47,38,32,32,28,25,93,70,46,30.18,29.92,9,2,13,0.00
2013-11-9,45,39,32,31,27,24,83,63,44,30.27,30.00,4,1,6,0.00
2013-11-10,57,44,39,39,34,28,82,67,41,30.01,29.82,9,2,13,0.01
2013-11-11,50,44,35,32,28,25,72,55,39,30.19,29.97,8,2,11,0.00
2013-11-12,47,32,23,36,25,16,96,75,55,30.26,29.95,6,2,8,0.01
2013-11-13,34,28,21,19,15,10,80,58,37,30.35,30.15,8,2,10,0.00
2013-11-14,50,38,26,20,17,13,76,46,22,30.24,30.13,7,2,8,0.00
2013-11-15,56,43,33,25,21,13,61,42,22,30.25,30.17,4,0,6,0.00
2013-11-16,59,47,41,44,35,23,96,64,40,30.34,30.24,4,0,5,0.00
2013-11-17,57,51,41,56,50,24,96,96,96,30.30,29.84,4,0,6,0.02
2013-11-18,62,55,45,58,41,24,96,63,35,29.84,29.62,10,2,13,0.23
2013-11-19,46,38,29,28,23,19,68,55,45,30.35,29.78,16,4,18,0.00
2013-11-20,40,30,24,19,15,11,72,56,31,30.61,30.35,6,2,9,0.16
2013-11-21,47,35,22,37,25,15,83,68,40,30.62,30.41,4,0,6,0.00
2013-11-22,50,46,42,48,44,37,96,92,82,30.41,29.91,4,0,6,0.16
2013-11-23,48,37,25,46,25,10,91,62,38,30.04,29.90,9,3,12,0.00
2013-11-24,26,21,18,10,3,-6,63,46,25,30.30,29.88,13,5,17,0.00
2013-11-25,31,23,13,14,10,6,85,59,40,30.43,30.30,6,2,8,0.00
2013-11-26,38,33,28,36,24,13,96,71,49,30.32,29.88,5,2,6,0.43
2013-11-27,58,43,30,57,42,26,98,97,83,29.88,29.36,9,3,10,2.91
2013-11-28,31,26,20,26,15,10,85,66,46,30.45,25.53,11,3,16,0.00
2013-11-29,34,26,18,22,18,14,85,71,55,30.72,30.45,6,1,9,0.00
2013-11-30,31,24,14,24,14,7,90,68,38,30.75,30.38,4,1,6,0.00
2013-12-1,48,36,30,36,31,13,93,80,63,30.38,30.03,3,0,5,0.00
2013-12-2,43,34,30,36,32,28,98,93,75,30.03,29.91,3,0,3,0.00
2013-12-3,48,35,26,37,32,25,98,89,64,30.02,24.95,4,0,6,0.00
2013-12-4,49,37,28,38,33,27,98,85,63,30.18,30.02,4,0,5,0.00
2013-12-5,53,48,41,53,47,37,98,97,87,30.17,29.98,3,0,4,0.01
2013-12-6,54,42,32,53,41,28,98,97,88,30.16,25.10,6,1,9,0.67
2013-12-7,36,30,24,33,28,19,98,92,75,30.50,30.11,5,1,7,0.03
2013-12-8,29,25,18,25,20,17,97,81,70,30.58,30.41,4,0,5,0.00
2013-12-9,32,30,25,32,29,24,98,98,97,30.41,29.74,5,2,7,0.05
2013-12-10,33,29,21,33,28,18,98,97,86,30.07,29.85,6,1,8,0.00
2013-12-11,31,23,17,20,17,15,90,77,61,30.26,30.07,6,2,9,0.00
2013-12-12,24,18,12,15,9,6,88,69,50,30.31,30.06,7,1,9,0.00
2013-12-13,31,22,15,18,12,5,82,65,54,30.34,30.06,9,2,12,0.00
2013-12-14,20,16,13,17,13,10,96,88,70,30.50,29.91,7,2,9,0.00
2013-12-15,33,27,18,31,25,17,98,91,78,29.91,29.52,8,2,14,0.00
2013-12-16,27,21,12,21,11,7,80,65,49,30.21,29.79,8,2,13,0.00
2013-12-17,18,15,8,17,13,5,96,91,79,30.22,29.93,5,1,6,0.00
2013-12-18,33,24,16,23,19,14,95,82,63,30.13,29.92,7,1,8,0.00
2013-12-19,42,31,20,28,23,18,91,73,49,30.15,30.01,6,1,7,0.06
2013-12-20,49,40,32,34,30,27,84,70,52,30.12,29.98,4,0,6,0.00
2013-12-21,58,48,41,49,43,34,96,82,64,30.01,29.92,5,0,6,0.00
2013-12-22,65,59,50,61,56,49,98,91,79,30.00,29.81,8,2,10,0.00
2013-12-23,57,49,33,55,48,32,98,97,92,30.16,29.95,6,1,9,0.96
2013-12-24,35,29,20,32,24,10,95,82,58,30.29,30.09,7,2,10,0.00
2013-12-25,25,18,12,13,8,5,78,65,45,30.49,30.29,6,1,9,0.00
2013-12-26,31,25,18,26,21,12,95,86,72,30.42,30.13,5,0,7,0.00
2013-12-27,36,28,23,24,21,18,95,74,51,30.32,30.24,6,1,8,0.00
2013-12-28,47,36,26,28,25,22,86,67,46,30.26,30.06,6,1,9,0.00
2013-12-29,41,38,35,37,32,27,98,82,63,30.07,29.48,6,1,10,1.16
2013-12-30,36,29,13,36,25,9,98,86,68,30.18,29.68,6,2,9,0.00
2013-12-31,26,19,12,22,12,7,90,75,56,30.23,30.03,8,2,9,0.00
2014-1-1,29,22,16,20,13,-36,84,68,51,30.41,30.22,6,1,8,0.00
2014-1-2,24,18,10,20,16,7,94,91,84,30.28,29.72,7,3,9,0.00